Bradshaw AFB, HI

9:00 PM HST on November 16, 2019 (GMT -1000)
Bradshaw Army Air Field

Weather History for PHSF - September, 2019

Change the Weather History Date:

Friday, September 6, 2019

  Actual Average Record
Temperature  
Mean Temperature 62 °F -  
Max Temperature 73 °F 70 °F 75 °F (2018)
Min Temperature 51 °F 50 °F 45 °F (2016)
Degree Days  
Heating Degree Days 3    
Growing Degree Days 12 (Base 50)    
Moisture  
Dew Point 51 °F    
Average Humidity 72    
Maximum Humidity 93    
Minimum Humidity 44    
Precipitation  
Precipitation 0.00 in - - ()
Sea Level Pressure  
Sea Level Pressure 30.15 in    
Wind  
Wind Speed 7 mph (SSE)    
Max Wind Speed 15 mph    
Max Gust Speed 24 mph    
Visibility 10 miles    
Events      
Averages and records for this station are not official NWS values.
T = Trace of Precipitation, MM = Missing Value Source: NWS Daily Summary

Daily Weather History Graph

Daily Weather History Graph

Search for Another Location

Airport or City:

Astronomy

Sep. 06, 2019 Rise Set
Actual Time 6:07 AM HST 6:32 PM HST
Civil Twilight 5:45 AM HST 6:55 PM HST
Nautical Twilight 5:19 AM HST 7:20 PM HST
Astronomical Twilight 4:53 AM HST 7:47 PM HST
Moon 1:27 PM HST (9/6) No Moon Set
Length of Visible Light 13h 09m
Length of Day
12h 25m
First Quarter, 58% of the Moon is Illuminated
Sep 6
First Quarter
Sep 13
Full
Sep 21
Last Quarter
Sep 28
New
Oct 5
First Quarter

Hourly Weather History & Observations

Time (HST) Temp. Dew Point Humidity Pressure Visibility Wind Dir Wind Speed Gust Speed Precip Events Conditions
12:57 AM - - N/A% - - SSE 4.6 mph - N/A   Unknown
1:56 AM 52.3 °F 48.0 °F 85% 29.98 in 10.0 mi ESE 4.6 mph - N/A   Clear
2:56 AM 52.7 °F 45.1 °F 75% 30.32 in 10.0 mi SE 5.8 mph - N/A   Clear
3:56 AM 51.8 °F 44.1 °F 75% 30.32 in 10.0 mi ESE 4.6 mph - N/A   Clear
4:56 AM 52.7 °F 50.4 °F 92% 30.32 in 10.0 mi ESE 4.6 mph - N/A   Clear
5:56 AM 53.4 °F 51.4 °F 93% 30.34 in 10.0 mi SE 8.1 mph - N/A   Partly Cloudy
6:56 AM 55.8 °F 52.5 °F 89% 30.35 in 10.0 mi SE 5.8 mph - N/A   Clear
7:56 AM 61.9 °F 52.3 °F 71% 30.36 in 10.0 mi SSE 6.9 mph - N/A   Clear
8:56 AM 65.3 °F 56.1 °F 72% 30.03 in 10.0 mi SSE 13.8 mph - N/A   Clear
9:56 AM 67.5 °F 56.8 °F 69% 30.37 in 10.0 mi SSE 10.4 mph - N/A   Clear
10:56 AM 71.4 °F 53.4 °F 53% 30.36 in 10.0 mi South 6.9 mph - N/A   Partly Cloudy
11:56 AM 69.4 °F 51.6 °F 53% 30.36 in 10.0 mi South 10.4 mph - N/A   Partly Cloudy
12:56 PM 73.9 °F 50.9 °F 44% 30.36 in 10.0 mi South 8.1 mph - N/A   Partly Cloudy
1:56 PM 72.5 °F 51.8 °F 48% 29.98 in 10.0 mi SSW 11.5 mph 17.3 mph N/A   Scattered Clouds
2:56 PM 71.8 °F 50.4 °F 47% 29.96 in 10.0 mi SSE 9.2 mph 18.4 mph N/A   Scattered Clouds
3:56 PM 66.2 °F 54.9 °F 67% 29.99 in 10.0 mi SSE 13.8 mph 21.9 mph N/A   Partly Cloudy
4:56 PM 64.0 °F 54.1 °F 70% 29.97 in 10.0 mi SSE 15.0 mph 24.2 mph N/A   Partly Cloudy
5:56 PM 61.3 °F 52.7 °F 73% 30.00 in 10.0 mi SE 10.4 mph 18.4 mph N/A   Partly Cloudy
6:56 PM 59.0 °F 51.8 °F 77% 30.01 in 10.0 mi SE 8.1 mph 19.6 mph N/A   Clear
7:56 PM 54.3 °F 49.1 °F 83% 30.03 in 10.0 mi SE 8.1 mph 17.3 mph N/A   Clear
8:56 PM 53.6 °F 48.7 °F 84% 30.04 in 10.0 mi SE 6.9 mph - N/A   Clear
9:56 PM 53.1 °F 46.2 °F 78% 30.03 in 10.0 mi SE 5.8 mph - N/A   Clear
10:56 PM 52.3 °F 44.6 °F 75% 30.00 in 10.0 mi SE 8.1 mph - N/A   Clear
11:56 PM 52.2 °F 46.0 °F 80% 30.01 in 10.0 mi SE 6.9 mph - N/A   Clear